Home   Weather   Bridlington   Past weeks

Flag for United Kingdom Past Weather in Bridlington, England, United Kingdom — Yesterday and Last 2 Weeks

Now
45 °F

Fog.


Feels Like: 42 °F
Forecast: 46 / 54 °F
Wind: 5 mph from Southwest

Location: Humberside

Current Time: Dec 9, 2016 at 12:19:07 am

Latest Report: Dec 8, 2016 at 11:50 pm


Visibility: 3 mi

Pressure: 30.24 "Hg

Humidity: 100%

Dew Point: 45 °F

Location of BridlingtonLocation

Past Weather in Bridlington — Graph

°F

Bridlington Temperature Yesterday

Maximum temperature yesterday: 57 °F (at 12:20 pm)
Minimum temperature yesterday: 46 °F (at 10:20 pm)
Average temperature yesterday: 53 °F

High & Low Weather Summary for the Past Weeks

 TemperatureHumidityPressure
High57 °F (Dec 8, 12:20 pm)100% (Nov 25, 7:20 pm)30.57 "Hg (Nov 25, 7:20 pm)
Low27 °F (Dec 5, 7:20 am)58% (Nov 28, 12:50 pm)30.07 "Hg (Dec 8, 12:50 pm)
Average42 °F90%30.33 "Hg
* Reported Nov 23 10:20 pm — Dec 8 10:50 pm, Bridlington, Weather by CustomWeather, © 2016

Note: Actual official high and low records may vary slightly from our data, if they occured in-between our weather recording intervals... More about our weather records

Advertising

Bridlington Weather History for the Previous 24 Hours

Scroll right to see more
 ConditionsComfort  
Time TempWeatherWind HumidityBarometerVisibility
10:50 pm
Thu, Dec 8
46 °FFog.No wind93%30.24 "Hg2 mi
10:20 pm46 °FFog.6 mph100%30.24 "Hg3 mi
9:50 pm48 °FPassing clouds.9 mph94%30.24 "Hg4 mi
9:20 pm48 °FPassing clouds.10 mph94%30.24 "HgN/A
8:50 pm50 °FPassing clouds.8 mph94%30.24 "HgN/A
8:20 pm50 °FClear.10 mph94%30.24 "Hg10 mi
7:50 pm50 °FClear.13 mph94%30.24 "Hg10 mi
7:20 pm52 °FClear.8 mph88%30.21 "Hg10 mi
6:50 pm52 °FClear.9 mph88%30.21 "Hg10 mi
6:20 pm52 °FPassing clouds.9 mph88%30.21 "HgN/A
5:50 pm54 °FPartly cloudy.12 mph88%30.18 "HgN/A
5:20 pm55 °FPartly cloudy.14 mph88%30.18 "HgN/A
4:50 pm57 °FPartly cloudy.15 mph88%30.15 "HgN/A
4:20 pm57 °FPartly cloudy.14 mph88%30.15 "HgN/A
3:50 pm57 °FPartly cloudy.14 mph88%30.12 "HgN/A
3:20 pm57 °FMore clouds than sun.12 mph88%30.09 "HgN/A
2:50 pm57 °FBroken clouds.15 mph88%30.09 "HgN/A
2:20 pm57 °FLight rain. Broken clouds.15 mph88%30.07 "Hg4 mi
1:50 pm57 °FLight rain. Broken clouds.13 mph88%30.07 "Hg4 mi
1:20 pm57 °FBroken clouds.13 mph94%30.07 "HgN/A
12:50 pm57 °FPartly sunny.14 mph94%30.07 "HgN/A
12:20 pm57 °FBroken clouds.15 mph94%30.09 "HgN/A
11:50 am55 °FBroken clouds.17 mph100%30.09 "Hg6 mi
11:20 am55 °FBroken clouds.16 mph94%30.09 "Hg5 mi
10:50 am55 °FBroken clouds.15 mph94%30.09 "Hg4 mi
10:20 am55 °FBroken clouds.16 mph94%30.12 "Hg4 mi
9:50 am54 °FLight rain. Broken clouds.18 mph100%30.12 "Hg2 mi
9:20 am54 °FLight rain. Broken clouds.13 mph100%30.12 "Hg3 mi
8:50 am54 °FLight rain. Scattered clouds.14 mph100%30.12 "Hg4 mi
8:20 am54 °FLight rain. Partly sunny.13 mph100%30.12 "Hg2 mi
7:50 am54 °FLight rain. Passing clouds.14 mph100%30.12 "Hg4 mi
7:20 am54 °FLight rain. Passing clouds.14 mph100%30.12 "Hg4 mi
6:50 am54 °FRain. Partly cloudy.12 mph100%30.12 "Hg4 mi
6:20 am54 °FRain. Passing clouds.13 mph94%30.15 "Hg3 mi
5:50 am54 °FRain. Passing clouds.14 mph94%30.15 "Hg3 mi
5:20 am54 °FLight rain. Partly cloudy.16 mph94%30.15 "Hg2 mi
4:50 am54 °FFog.16 mph94%30.15 "Hg2 mi
4:20 am52 °FHaze.14 mph100%30.15 "Hg3 mi
3:50 am52 °FPassing clouds.13 mph94%30.15 "Hg4 mi
3:20 am52 °FPassing clouds.16 mph94%30.18 "Hg4 mi
2:20 am52 °FPassing clouds.17 mph94%30.15 "Hg5 mi
1:20 am52 °FPassing clouds.18 mph94%30.15 "HgN/A
12:50 am54 °FPassing clouds.16 mph88%30.15 "HgN/A
12:20 am52 °FPassing clouds.17 mph94%30.15 "HgN/A
Weather by CustomWeather, © 2016

See weather overviewHow to use our weather pages